Tracking 19854 objects as of 23-Sep-2019
HD Live streaming from Space Station
objects crossing your sky now

COSMOS 192

Track COSMOS 192 now!
10-day predictions
COSMOS 192 is classified as:


NORAD ID: 3047
Int'l Code: 1967-116A
Perigee: 709.2 km
Apogee: 719.8 km
Inclination: 74.0 °
Period: 98.9 minutes
Semi major axis: 7085 km
RCS: 3.2027 m2 (large)
Launch date: November 23, 1967
Source: Commonwealth of Independent States (former USSR) (CIS)
Launch site: PLESETSK MISSILE AND SPACE COMPLEX (PKMTR)
aabbcc
Your satellite tracking list
Your tracking list is empty




NASA's NSSDC Master Catalog

Two Line Element Set (TLE):
1  3047U 67116A   19265.84121254  .00000018  00000-0  10754-4 0  9995
2  3047  74.0144   7.1248 0007445  51.9413 308.2421 14.55613979741081
Source of the keplerian elements: AFSPC